Regional Weather Roundup
Issued by NWS Albany, NY

Home | Current Version | Previous Version | Graphics & Text | Print | Product List | Glossary Off
Versions: 1 2 3 4 5 6 7 8 9 10 11 12 13 14 15 16 17 18 19 20 21 22 23 24 25 26 27

000
ASUS41 KALY 210110
RWRALY

NEW YORK STATE HOURLY WEATHER ROUNDUP
NATIONAL WEATHER SERVICE ALBANY NY
800 PM EST MON FEB 20 2017

NOTE: "FAIR" INDICATES FEW OR NO CLOUDS BELOW 12,000 FEET WITH NO
SIGNIFICANT WEATHER AND/OR NO OBSTRUCTIONS TO VISIBILITY.

NYZ032-033-038>043-046>054-057>066-NYZ062>081-082-084-210200-
EAST


CITY           SKY/WX    TMP DP  RH WIND       PRES   REMARKS
ALBANY         PTCLDY    33  13  43 N6        30.39R WCI  28
GLENS FALLS    CLEAR     30  15  53 N3        30.39R
POUGHKEEPSIE   CLEAR     35  18  49 NE6       30.34R WCI  30
NEWBURGH       CLEAR     37  19  48 E12       30.34R WCI  30
MONTGOMERY     CLEAR     38  20  48 NE9       30.32R WCI  31
WHITE PLAINS   CLEAR     40  12  32 N9        30.31R WCI  34
ISLIP          CLEAR     40  18  41 N10       30.31R WCI  33
NEW YORK CITY  PTCLDY    46  12  25 NE13      30.31R
CENTRAL PARK   CLEAR     45  10  24 NE9       30.33R
$$

NYZ005>009-017-018-044>046-055-056-210200-
CENTRAL


CITY           SKY/WX    TMP DP  RH WIND       PRES   REMARKS
FULTON         PTCLDY    26  15  63 CALM      30.37F
SYRACUSE       CLOUDY    28  15  58 CALM      30.37F
ROME           CLOUDY    27  19  72 CALM      30.38S
ELMIRA         CLOUDY    32  18  56 E6        30.32R WCI  26
BINGHAMTON     CLEAR     29  16  58 NE7       30.29S WCI  22
MONTICELLO     CLEAR     34  12  40 N8        30.31R WCI  27
$$

NYZ026>034-041>043-087-210200-
NORTH


CITY           SKY/WX    TMP DP  RH WIND       PRES   REMARKS
WATERTOWN      CLOUDY    27  15  61 CALM      30.39S
FORT DRUM      NOT AVBL
OGDENSBURG     FAIR      21  17  83 CALM      30.40F
MASSENA        CLOUDY    23  16  74 CALM      30.42S
SARANAC LAKE   CLEAR     19  10  68 CALM      30.31S
PLATTSBURGH    CLEAR     24  18  77 CALM      30.41R
$$

NYZ001>004-010>016-019>021-085-210200-
WEST


CITY           SKY/WX    TMP DP  RH WIND       PRES   REMARKS
NIAGARA FALLS  PTCLDY    33  19  56 E12       30.32S WCI  24
BUFFALO        CLOUDY    33  21  61 NE10      30.32R WCI  25
DUNKIRK        PTCLDY    34  26  72 N3        30.28S
JAMESTOWN      CLOUDY    41  21  45 NE5       30.23S
WELLSVILLE     CLOUDY    36  15  42 E3        30.27R
ROCHESTER      PTCLDY    31  13  47 E8        30.36S WCI  23
PENN YAN       PTCLDY    29  15  56 CALM      30.34S
$$

             KEY
       WCI = WIND CHILL INDEX
       VSB = VISIBILITY
       HX  = HEAT INDEX
$$




USA.gov is the U.S. government's official web portal to all federal, state and local government web resources and services.